Wind_Speed
9 9 9 8 7 7 5 3 1 2 3 4 5 5 4 4 5 6 6 7 8 8 8 8 7 7 7 6 5 5 6 5 6 7 7 8 8 8 8 9 9 8 8 8 8 8 8 8 8 8 8 9 8 8 8 8 8 8 8 8 7 9 10 11 15 17 18 18 18 18 18 19 20 20 20 19 17 18 18 19 20 19 19 19 21 22 24 24
9 9 8 8 7 6 4 2 1 2 2 4 4 4 4 4 5 6 7 8 8 8 7 7 7 7 7 6 6 6 6 6 6 6 7 8 8 8 8 8 8 8 9 9 9 9 9 9 9 9 9 9 9 8 8 8 8 8 8 7 7 9 10 13 15 16 17 17 17 19 19 20 22 21 21 19 18 20 20 19 17 16 16 18 21 22 23 25
8 8 7 7 7 6 3 1 1 1 2 4 4 4 4 4 6 7 8 8 7 6 6 7 7 7 7 6 6 6 6 7 6 6 7 9 8 8 8 8 9 9 9 9 10 10 10 10 10 10 10 9 9 9 8 8 8 8 8 7 8 10 11 13 14 14 16 17 18 19 20 20 21 20 20 19 19 19 18 17 15 13 12 13 16 18 19 21
8 8 7 5 6 5 2 1 1 2 3 3 3 3 3 5 6 7 8 7 7 6 6 7 7 7 7 7 7 7 7 6 6 8 8 8 8 8 9 9 10 10 10 10 10 10 10 10 10 10 10 9 9 9 8 8 7 7 7 7 9 9 11 13 13 14 16 17 19 19 19 19 19 19 19 18 16 15 13 12 13 12 11 9 10 13 13 14
11 11 9 6 5 4 2 1 2 2 3 3 2 3 4 6 7 8 8 7 6 6 7 7 7 7 7 7 7 7 7 5 6 8 8 8 9 9 10 10 10 11 10 10 10 10 10 10 10 9 9 8 8 7 7 7 6 6 7 7 8 10 11 13 14 15 16 18 19 18 19 18 18 16 15 14 12 12 12 11 12 12 11 11 11 12 13 13
14 14 13 9 5 3 2 2 1 2 2 2 1 3 5 7 8 8 8 6 6 6 7 7 7 7 7 6 6 6 7 6 6 8 8 9 10 10 10 10 11 11 11 11 11 10 10 9 9 8 6 6 6 6 6 6 6 6 7 8 10 11 12 13 14 15 17 18 18 18 17 16 14 12 11 10 9 10 11 11 11 12 12 13 14 14 15 15
15 14 12 8 5 4 2 2 1 1 1 1 2 4 7 8 8 8 7 6 6 7 7 7 6 6 5 5 5 6 8 7 7 8 9 10 10 10 10 11 11 11 10 11 10 10 9 9 8 7 6 6 7 8 8 8 9 9 9 10 11 12 12 13 14 14 16 17 17 17 15 14 11 8 7 8 8 8 9 10 11 12 14 15 15 16 16 16
13 11 9 7 5 4 2 1 1 1 1 2 4 6 7 7 7 7 7 6 6 6 6 6 5 4 4 5 6 7 8 8 8 9 10 11 11 11 11 11 11 11 11 10 10 10 10 10 10 8 7 8 9 10 10 10 10 11 10 11 11 11 12 13 13 14 16 16 16 15 12 13 11 6 6 7 6 7 8 10 12 12 13 15 16 17 17 17
11 9 8 6 5 4 2 1 0 1 2 3 5 7 7 7 7 6 6 6 5 5 5 6 6 6 6 7 7 8 9 10 10 10 11 12 12 12 11 11 11 11 11 10 10 12 12 12 12 10 9 10 11 11 11 11 10 10 11 11 11 11 11 12 13 15 17 15 15 14 11 13 10 6 5 6 5 6 8 10 11 13 14 16 17 17 17 17
10 9 7 6 5 4 2 1 1 1 3 5 6 7 6 6 6 6 5 5 5 6 7 8 8 8 8 9 8 9 11 12 12 12 12 12 12 12 11 12 13 12 11 11 12 13 14 13 12 11 11 11 11 12 12 11 11 11 11 12 12 12 12 13 15 16 16 15 15 14 11 13 10 5 5 4 6 8 8 11 13 15 16 18 18 18 18 17
10 9 7 6 5 4 2 1 1 2 4 6 6 6 6 6 5 5 5 6 7 8 9 10 10 10 11 10 9 10 12 13 13 12 12 12 13 13 13 13 14 13 12 13 12 13 14 12 12 13 12 11 10 12 14 11 11 14 14 13 13 13 12 15 16 15 16 16 15 12 10 12 9 5 5 4 7 9 11 13 15 17 18 19 19 18 17 16
10 9 7 7 5 3 2 1 2 3 5 6 6 5 5 4 4 5 7 8 9 10 10 11 10 12 12 8 9 13 13 13 13 12 12 12 13 14 14 14 14 13 13 13 12 13 13 11 14 15 12 10 10 11 14 12 8 11 15 15 14 14 13 15 17 16 15 15 15 10 7 11 10 7 6 6 9 12 14 15 17 19 19 19 18 17 16 16
10 9 8 6 5 3 2 2 2 4 4 5 4 4 4 5 6 8 9 9 9 9 10 11 11 13 10 8 12 15 14 13 12 12 12 13 14 14 14 14 14 12 13 13 13 13 11 12 16 15 12 12 13 12 12 12 9 7 11 15 16 16 15 15 16 16 13 11 13 9 4 8 9 5 4 8 12 13 13 15 18 19 19 18 17 17 16 17
10 9 8 6 4 3 2 2 3 3 4 4 4 5 6 8 8 9 9 9 9 9 9 10 12 13 11 11 14 15 14 13 13 13 13 14 14 14 14 13 13 13 13 13 13 13 12 15 15 12 12 12 11 11 11 12 13 10 10 16 20 18 16 16 16 17 13 10 13 8 7 4 7 5 6 11 14 15 15 17 19 19 19 18 17 18 17 17
10 8 7 5 4 3 2 3 3 3 4 5 7 8 9 9 9 10 10 10 10 10 11 10 11 12 12 14 15 14 14 14 14 13 13 14 14 14 13 13 13 13 13 13 12 12 15 15 9 8 13 12 8 8 10 12 15 16 15 16 21 19 17 16 17 19 15 11 13 8 6 2 9 10 8 13 16 17 19 20 21 20 20 20 19 19 19 19
8 7 6 4 4 3 3 3 3 5 6 8 9 9 10 10 10 11 11 11 10 10 10 11 12 10 11 14 15 13 12 12 13 13 13 14 14 13 13 13 13 12 13 13 11 12 14 11 7 9 12 12 11 9 9 15 18 19 19 18 20 21 19 18 17 19 15 11 12 8 2 4 11 12 11 14 17 19 20 22 23 24 23 22 22 22 21 22
7 6 5 5 4 5 5 5 6 7 9 9 9 10 10 11 11 12 12 12 12 11 11 11 12 11 10 12 13 12 13 13 14 14 14 14 13 13 13 13 11 11 12 12 11 11 10 8 9 11 12 13 16 15 13 17 20 20 20 19 20 21 20 19 17 18 14 9 10 7 3 7 11 12 11 13 16 19 21 22 24 25 25 25 25 25 25 25
8 7 6 6 6 7 7 8 9 10 10 10 10 10 10 11 11 10 9 10 10 11 12 11 11 11 13 13 13 15 16 15 15 14 13 13 12 12 12 12 11 11 11 10 10 9 7 6 7 8 14 18 19 21 18 16 18 20 21 21 20 20 20 19 19 21 14 6 8 8 7 10 11 11 10 11 14 18 20 22 24 25 26 27 27 27 28 29
9 9 9 8 8 9 9 10 11 12 11 11 11 12 12 12 11 11 10 9 8 9 10 12 13 15 16 15 15 17 16 15 15 14 13 12 11 11 11 11 11 10 8 7 8 10 7 3 5 12 19 22 21 22 19 15 16 19 21 21 22 23 21 18 19 23 17 8 8 10 12 13 12 11 10 11 14 17 20 23 25 27 28 28 28 29 31 32
11 11 10 10 10 11 12 13 13 13 13 13 14 14 14 13 12 13 11 10 13 15 13 12 14 17 17 15 15 15 15 14 14 13 11 10 10 10 10 11 10 8 7 8 10 11 9 6 12 19 18 19 19 18 17 16 17 19 21 21 22 25 23 18 21 24 18 12 12 13 15 17 16 15 13 13 14 17 21 23 25 27 29 30 30 31 32 33
13 13 12 12 12 13 14 14 14 15 16 16 16 16 15 13 13 14 12 14 18 19 17 15 15 16 16 15 14 14 15 14 12 11 10 10 9 9 10 9 6 6 9 12 11 9 10 14 19 18 15 16 17 17 17 16 17 19 22 23 24 28 26 19 23 24 17 16 17 16 18 20 19 19 18 15 14 18 21 23 24 28 30 32 32 32 31 31
14 14 14 14 15 16 16 16 16 17 18 19 18 17 17 15 15 14 14 19 21 20 18 16 14 14 16 15 14 14 11 9 9 9 10 11 9 8 8 6 5 7 10 11 10 9 14 20 19 16 16 16 15 17 17 16 18 20 23 26 27 30 28 23 26 23 15 18 21 19 19 21 21 21 20 17 17 21 23 24 26 29 30 31 32 32 32 31
15 15 15 16 16 16 16 17 17 18 19 19 19 18 17 16 16 15 16 19 20 20 18 15 12 12 13 14 14 12 6 5 9 10 10 11 9 9 8 6 7 7 8 10 12 14 18 20 18 16 16 15 16 17 17 18 18 20 25 27 29 30 25 27 31 23 15 17 21 21 21 22 19 18 19 19 22 26 26 28 30 30 29 30 32 32 33 34
16 16 16 16 16 16 16 17 17 18 17 16 15 14 14 14 13 13 15 18 19 18 17 15 12 10 10 11 12 13 9 7 10 11 11 10 9 10 9 8 8 6 7 12 15 18 20 19 18 17 16 16 17 16 17 19 18 19 26 28 31 30 23 26 31 25 21 17 20 25 20 16 13 14 18 20 25 28 29 31 31 30 29 29 30 31 31 33
17 17 16 15 15 15 15 15 16 15 12 11 10 9 10 11 9 9 12 15 17 16 14 13 12 12 11 9 9 11 10 9 10 12 11 10 10 11 10 10 9 6 7 10 14 18 19 17 17 16 16 16 17 17 19 20 18 19 26 29 33 30 24 27 26 24 23 16 21 24 12 8 12 15 18 21 24 27 29 32 30 28 28 29 30 32 33 34
17 16 15 15 14 14 13 13 12 9 6 5 4 5 9 9 6 6 8 11 14 16 14 12 12 14 13 11 10 7 7 10 12 13 11 10 10 11 12 12 11 9 6 7 12 16 16 16 16 16 16 16 18 19 20 21 19 18 25 31 33 28 25 28 22 18 21 20 21 16 5 10 15 14 17 21 25 29 32 31 29 30 33 35 36 35 36 37
16 15 14 13 12 12 10 9 8 4 2 1 1 5 8 8 4 3 4 5 11 15 15 13 13 14 14 14 13 8 7 11 12 12 11 10 10 10 12 13 13 11 7 6 10 14 15 15 16 16 17 17 20 20 21 23 18 18 26 32 33 28 25 25 18 17 26 26 17 9 8 15 15 13 18 26 28 31 33 31 33 38 40 40 39 39 39 40
14 13 12 11 9 8 7 5 4 1 1 1 2 5 5 5 5 3 2 2 8 13 14 13 13 14 14 14 14 12 11 10 9 11 11 10 10 10 11 13 14 13 9 8 11 14 15 16 16 17 18 20 22 21 22 22 18 19 27 34 34 29 27 21 14 20 30 23 8 9 15 14 16 20 22 29 31 30 32 35 40 43 41 41 40 40 42 44
11 10 9 7 6 5 4 2 1 1 1 2 2 3 2 3 3 3 5 4 6 10 12 13 11 12 13 13 12 13 12 11 12 12 11 10 11 10 11 12 14 14 11 8 10 12 15 18 17 18 20 21 22 21 21 21 19 20 27 37 35 29 28 17 13 27 28 14 5 12 20 13 17 25 24 25 28 28 33 38 41 41 39 40 40 41 45 50
9 8 7 6 4 3 2 1 1 1 1 1 1 1 2 2 1 3 5 3 5 9 10 11 11 11 11 10 12 12 12 13 14 13 11 11 11 11 12 12 12 15 13 8 8 8 12 18 19 18 19 20 20 21 21 20 21 21 30 41 36 31 29 13 16 31 19 7 10 18 24 16 13 20 21 22 25 29 35 38 38 36 36 38 42 47 52 58
8 7 6 5 4 3 1 1 2 2 2 2 2 2 1 1 2 4 4 2 5 8 9 11 12 11 10 10 12 12 12 13 13 11 10 11 11 9 12 14 13 13 13 12 11 6 6 15 21 19 18 20 20 21 22 21 21 24 34 42 34 29 26 11 16 24 9 6 15 21 25 16 11 16 19 23 27 30 34 33 33 34 36 42 49 54 59 65
7 7 6 5 4 4 4 5 5 5 5 4 2 1 2 3 6 8 5 2 3 6 8 11 12 12 11 12 13 12 12 13 13 13 13 14 14 13 15 19 17 13 11 14 16 8 3 10 21 20 19 21 22 23 23 21 21 26 34 37 25 18 16 9 12 13 6 12 18 24 28 17 14 19 22 28 32 32 30 28 31 37 43 50 55 60 66 71
7 7 6 5 5 5 6 6 5 5 5 5 5 3 3 5 7 8 6 4 4 6 9 10 11 13 12 13 14 13 13 14 14 14 15 16 18 19 19 19 20 16 12 14 18 14 3 5 18 23 21 21 24 24 24 21 20 26 32 27 17 10 7 6 8 8 10 17 25 32 28 18 19 23 28 37 40 35 31 31 37 44 49 55 60 66 72 71
8 7 7 6 5 5 6 5 5 5 4 5 6 4 7 10 8 8 9 7 5 8 10 9 10 13 14 14 15 14 13 14 14 14 13 13 17 19 17 17 18 17 15 14 16 16 7 3 13 23 21 20 23 22 23 21 16 24 30 22 13 8 4 5 7 8 12 21 31 32 20 15 22 28 35 41 37 32 33 37 43 46 48 55 65 71 71 68
8 7 8 8 7 6 6 5 6 6 6 7 6 6 10 11 9 9 10 8 6 6 8 10 10 12 14 15 14 14 13 13 13 13 13 13 16 17 15 16 17 17 17 14 13 16 10 3 10 22 23 20 20 20 23 19 13 23 29 20 16 12 6 9 11 14 18 19 20 20 17 19 25 32 37 33 26 29 36 41 45 46 51 62 70 71 69 69
9 8 8 8 9 9 8 8 8 7 7 6 5 10 15 12 10 11 11 11 10 7 6 8 10 10 12 13 13 13 12 12 12 12 13 14 15 16 14 15 16 17 17 15 14 16 12 5 7 19 24 20 17 19 22 18 16 23 23 19 22 15 5 8 12 15 16 12 11 16 22 26 26 26 25 21 25 36 40 43 47 54 64 71 70 68 69 70
11 10 9 9 10 10 9 9 7 6 5 3 5 13 17 14 13 13 12 12 13 12 9 9 9 10 11 10 11 11 11 12 12 12 14 13 12 14 14 14 15 16 17 16 15 16 13 7 7 19 25 19 16 18 19 17 18 20 19 21 25 12 1 6 10 11 10 8 13 19 25 31 27 17 15 23 34 38 39 47 57 66 71 70 67 68 71 69
12 12 12 11 10 9 8 7 6 8 7 5 11 16 16 14 14 13 13 13 13 13 13 11 10 10 10 9 9 10 10 11 12 12 13 12 10 11 12 13 14 15 16 16 16 18 15 7 9 22 25 19 16 16 15 15 17 20 21 25 23 8 3 10 9 7 8 7 10 19 26 29 22 16 23 33 35 35 42 56 67 72 69 65 66 70 70 64
13 13 13 12 10 10 9 7 7 8 6 6 13 17 15 15 15 13 13 13 12 13 13 12 11 10 10 10 9 9 10 12 13 12 12 12 9 10 12 12 13 14 15 16 17 21 17 7 8 22 26 19 16 16 14 13 16 23 27 28 24 11 8 15 11 7 10 8 9 17 20 17 16 21 30 32 32 40 52 63 70 70 65 64 69 70 65 61
13 13 12 12 11 10 10 11 12 8 5 8 15 16 15 16 15 14 13 12 12 12 12 12 11 10 10 11 10 10 10 12 14 12 12 12 10 9 10 11 12 14 15 16 18 21 18 8 12 25 27 19 16 16 15 14 16 23 29 29 26 19 16 17 12 7 7 8 9 11 13 21 28 28 27 29 38 50 58 65 70 68 66 70 71 66 60 59
12 12 13 12 10 10 11 12 12 8 9 14 16 16 16 15 14 13 12 11 11 12 12 12 11 11 11 11 11 12 10 11 13 13 12 12 10 8 9 10 12 14 15 17 19 20 16 11 18 28 27 21 16 15 16 17 18 23 28 26 23 22 18 12 7 6 8 10 12 11 14 29 34 26 28 36 45 53 59 64 69 69 71 73 68 60 58 58
11 11 13 11 9 11 12 11 10 11 13 16 16 15 15 13 12 12 10 10 11 11 12 12 11 11 11 11 11 13 11 10 12 13 12 11 10 8 8 8 10 13 15 16 18 20 16 14 21 26 24 20 16 16 18 19 20 26 29 26 24 24 20 11 7 12 16 15 19 18 17 28 30 26 35 45 46 53 60 63 67 71 74 72 63 56 57 59
10 11 13 11 10 12 12 11 12 14 15 16 15 14 14 12 10 10 10 10 11 11 11 12 12 12 12 12 11 13 12 9 10 12 11 10 10 9 7 8 9 12 15 16 17 19 16 16 24 28 25 20 17 18 21 22 26 31 32 31 29 26 25 21 16 19 19 15 20 19 15 30 42 40 45 49 47 54 62 64 69 74 72 66 60 56 56 60
10 12 14 13 13 12 13 14 14 13 15 15 14 13 11 10 9 9 10 10 10 10 10 12 12 12 13 12 11 13 13 9 10 12 11 10 10 8 8 8 9 11 15 16 17 18 14 16 24 25 19 16 14 16 19 24 30 32 31 32 31 26 26 26 20 19 17 15 19 15 15 38 58 56 57 54 45 50 63 68 71 71 63 56 58 60 59 60
8 11 14 16 14 11 13 17 15 13 15 14 12 11 9 9 9 9 9 10 9 9 10 11 12 13 13 13 13 14 15 12 11 11 11 10 9 9 8 9 8 10 15 17 18 19 15 15 21 17 9 8 11 11 15 24 29 29 29 30 28 25 23 22 17 15 17 21 24 19 24 47 65 67 68 57 42 50 65 68 66 66 60 56 60 63 61 60
8 10 12 15 15 13 15 18 16 14 13 11 10 10 9 8 9 8 8 9 10 10 10 11 13 13 13 14 13 14 16 14 11 11 12 10 9 10 9 9 9 9 14 17 18 19 16 14 19 19 13 12 15 15 17 22 24 26 30 28 23 22 21 20 15 14 21 28 30 28 30 45 63 70 68 56 47 52 59 62 65 65 63 62 63 62 60 61
10 12 12 13 14 15 16 17 15 13 12 10 10 10 9 9 9 8 9 9 10 11 10 11 13 13 13 14 14 14 16 14 11 12 11 9 10 10 10 10 9 9 12 17 18 20 18 14 19 25 22 17 17 18 18 18 21 26 27 20 19 20 21 20 18 19 23 22 29 41 44 46 60 69 63 57 57 56 54 60 67 67 64 63 62 61 61 61
14 16 16 15 14 15 15 15 14 13 11 11 11 11 10 10 9 10 10 10 11 12 11 12 13 13 13 14 14 15 15 14 12 12 11 10 10 10 10 10 9 9 12 16 19 21 20 18 23 29 26 19 17 22 23 21 23 24 17 13 19 20 19 22 25 25 24 21 32 51 53 49 57 62 59 63 64 57 53 56 62 65 64 62 63 63 63 64
18 19 18 18 17 15 15 14 14 13 12 11 11 11 11 11 11 11 11 11 12 12 12 12 13 13 14 14 15 16 16 15 14 14 13 11 11 12 12 10 9 10 12 16 21 22 22 24 27 30 29 22 21 28 30 25 21 15 9 13 22 20 15 20 28 32 36 41 46 51 52 53 55 54 59 66 63 55 52 54 58 64 64 62 62 64 66 67
22 21 20 18 18 17 16 15 15 14 13 12 12 12 11 11 12 11 11 11 12 13 13 13 13 14 14 15 17 18 18 17 16 15 14 12 12 13 11 9 9 11 12 16 21 23 24 27 28 30 30 25 27 35 31 21 14 7 7 17 22 21 19 23 31 40 50 58 58 53 51 51 50 51 57 59 55 52 53 57 62 65 64 62 60 62 67 68
25 25 22 19 19 20 17 15 15 13 12 13 13 12 11 11 12 12 12 12 13 13 13 13 14 14 15 16 18 19 19 18 17 17 14 12 12 11 10 10 10 11 13 17 21 23 26 29 30 32 29 24 30 38 29 17 8 4 10 21 22 22 25 28 36 47 53 54 53 49 45 44 48 57 61 60 61 60 59 62 66 64 62 59 55 58 66 67
25 26 24 20 20 21 17 15 15 13 12 13 13 13 13 12 13 13 13 13 13 13 13 13 14 15 16 17 19 20 20 19 18 17 15 13 11 11 11 11 11 12 14 17 21 24 26 30 31 30 29 29 35 38 26 12 3 2 14 25 24 25 30 35 45 53 53 47 44 41 43 49 57 61 62 67 72 70 66 66 66 65 63 56 53 59 65 64
Wind_Direction
148 154 158 156 159 164 155 133 54 355 350 341 332 337 352 4 4 355 350 350 350 349 351 354 355 354 352 353 355 354 355 359 0 359 359 358 356 356 356 356 356 354 352 347 342 340 339 339 334 330 326 324 324 321 322 322 324 327 325 325 315 316 319 310 307 307 311 317 321 324 326 329 330 329 328 328 325 318 317 320 322 318 312 310 307 305 306 306
148 152 159 161 164 163 146 122 345 353 355 335 332 346 3 10 3 353 350 352 349 348 352 354 358 357 353 352 354 358 2 1 358 354 353 354 354 354 353 351 351 351 349 346 342 342 345 347 348 347 341 337 335 332 332 329 329 327 329 333 316 312 310 304 309 313 318 324 328 330 333 332 330 331 329 330 330 325 327 327 321 314 308 303 299 297 296 296
159 152 148 168 168 152 139 119 354 18 354 331 341 357 5 5 356 350 350 348 344 345 350 354 358 356 353 355 355 1 3 2 2 350 341 345 349 351 351 352 354 355 354 351 348 348 352 356 356 354 349 346 341 337 334 330 331 327 327 325 309 308 309 312 321 324 327 330 332 333 334 332 331 333 331 332 335 333 338 333 324 319 314 303 296 295 293 293
180 157 136 177 173 143 135 127 58 20 341 330 348 359 358 355 351 351 349 344 342 346 351 356 357 356 358 358 1 4 355 351 355 347 340 342 347 352 355 358 360 360 359 358 356 356 359 360 357 354 351 346 341 337 333 331 331 325 319 309 309 319 324 329 335 336 336 333 334 335 333 333 334 333 331 338 343 343 353 349 341 343 340 332 315 311 310 307
178 164 160 189 175 138 140 111 51 2 329 330 352 353 349 351 352 350 345 344 346 350 356 358 358 0 3 3 7 6 356 352 346 344 351 355 356 1 3 4 6 6 6 8 7 7 7 6 3 359 353 346 343 341 339 339 336 330 327 324 333 344 341 342 345 342 337 333 335 335 335 336 336 335 338 352 1 357 4 6 356 352 346 338 327 322 321 317
179 180 183 184 164 146 138 86 33 333 323 338 360 349 350 352 350 346 345 350 353 357 359 360 3 4 6 5 4 4 9 16 1 358 9 10 8 11 11 15 19 18 17 18 19 18 19 18 14 9 2 357 355 358 5 10 6 360 355 352 354 355 352 348 347 342 335 337 340 337 341 346 344 347 356 11 26 18 8 2 352 342 335 330 324 319 315 313
184 185 180 166 153 145 117 77 347 318 339 13 3 353 353 349 344 345 351 358 2 3 4 6 8 6 5 4 11 19 20 24 21 19 22 21 24 27 28 29 29 30 30 29 30 31 33 29 24 23 22 19 16 19 26 30 25 17 9 3 1 358 356 351 349 344 342 348 345 343 354 2 2 6 21 37 38 24 7 353 342 333 329 325 319 314 311 311
180 174 163 154 146 131 109 96 301 346 50 21 2 354 350 344 344 352 359 6 8 6 9 11 10 13 18 26 37 36 30 37 40 36 36 37 40 40 37 35 35 40 41 40 41 39 37 32 31 35 35 28 24 29 34 35 26 19 14 8 7 2 357 357 359 354 355 1 352 351 8 13 19 40 49 50 35 8 357 345 333 326 322 315 309 309 310 309
170 162 155 147 136 126 129 163 92 69 40 12 360 352 346 346 353 360 5 11 12 17 23 22 27 35 42 51 53 51 50 54 53 50 50 46 43 42 40 42 44 46 47 49 45 37 35 36 38 41 38 31 31 39 40 37 30 29 26 17 13 9 7 11 12 5 3 7 359 356 14 21 33 71 59 37 7 351 345 332 321 314 310 307 307 310 311 311
164 156 149 139 134 136 148 154 95 59 21 5 356 350 350 356 3 6 11 23 34 42 44 42 46 50 61 62 57 61 60 59 59 56 53 48 44 43 45 49 50 50 51 50 41 35 36 36 39 45 40 36 47 52 45 47 51 46 33 22 23 21 21 23 15 7 7 12 7 356 7 27 35 53 50 24 337 334 323 314 309 306 307 311 313 312 312 311
158 151 144 137 138 142 148 130 72 29 12 3 356 354 358 4 9 17 34 51 57 60 59 57 57 60 65 62 59 66 61 57 57 54 53 49 45 45 46 48 50 49 48 46 40 38 40 39 46 51 44 46 65 59 46 56 70 58 41 28 31 34 34 27 15 8 10 14 11 355 352 17 27 21 17 350 318 311 303 304 305 307 310 313 312 309 307 304
151 145 140 138 140 144 138 100 40 18 11 2 357 360 8 18 28 47 61 67 69 72 71 67 66 66 68 71 70 68 62 57 55 53 52 48 45 44 44 46 47 46 48 48 46 44 44 47 53 51 49 59 68 56 43 50 72 63 49 40 37 40 38 27 17 12 11 12 7 3 354 358 12 24 357 317 301 296 298 303 304 307 308 307 305 300 298 296
145 140 138 137 137 134 113 63 34 20 11 4 8 19 33 45 56 68 74 77 78 78 75 70 66 64 68 80 73 68 65 61 57 52 49 48 45 42 43 47 47 50 54 51 48 47 47 53 53 49 57 65 62 60 50 46 51 50 39 33 32 34 27 19 17 13 11 11 5 14 43 356 353 11 321 290 287 289 294 299 302 303 300 298 295 292 290 291
141 137 134 131 126 117 84 60 40 24 19 23 42 54 60 65 73 80 82 83 80 75 73 70 67 62 62 69 69 69 67 61 54 50 50 49 45 44 49 51 53 58 58 50 48 46 45 49 46 44 58 61 60 61 50 42 39 34 24 20 23 26 19 10 10 10 9 12 6 16 77 26 309 295 279 274 279 285 290 293 297 297 293 290 288 287 286 286
136 130 127 122 118 105 84 73 55 46 48 59 71 73 76 80 83 86 84 81 76 72 71 70 71 64 59 61 61 59 57 51 47 48 50 47 47 53 55 55 59 61 55 50 53 53 51 51 41 44 55 52 52 52 40 33 31 30 28 19 17 18 14 10 7 8 8 12 6 11 79 118 273 286 277 268 275 282 286 290 293 293 289 286 285 285 284 282
131 127 126 123 118 107 97 91 77 70 71 78 83 83 88 90 89 87 81 75 73 76 74 68 68 62 57 56 53 52 52 49 49 52 52 49 53 58 58 58 60 61 59 57 60 60 60 58 46 50 52 45 44 42 30 29 27 27 27 21 14 11 9 9 8 7 7 10 12 14 81 219 267 289 281 269 276 279 283 287 290 291 288 286 283 282 282 280
135 136 137 132 124 114 109 99 87 83 85 89 90 92 94 92 89 84 78 75 72 74 77 70 65 60 58 58 57 60 61 56 54 53 52 52 58 60 58 58 58 61 59 56 58 62 63 52 44 48 46 41 38 36 35 30 25 21 20 17 14 10 5 3 4 7 7 7 13 9 274 267 282 293 282 266 271 276 281 284 285 287 286 285 283 282 281 279
146 146 140 133 125 118 111 102 98 97 94 93 93 95 93 89 85 79 77 76 73 75 75 69 64 60 59 61 62 60 59 59 55 52 52 55 60 61 58 57 59 60 52 50 54 54 53 43 37 36 34 34 31 34 42 37 25 19 16 13 11 8 4 359 358 1 3 11 7 345 287 283 287 293 290 270 273 279 279 280 281 282 282 282 281 281 280 279
146 141 134 129 123 119 115 111 109 102 96 94 94 94 90 86 82 78 76 76 79 80 71 62 58 56 55 56 57 55 54 55 53 51 53 56 59 63 61 57 59 62 56 53 50 39 26 347 2 19 26 30 30 33 39 37 26 19 15 12 6 3 3 360 356 354 356 3 2 338 303 292 283 282 289 281 283 287 282 280 282 283 283 281 280 280 279 278
139 133 130 126 122 122 120 117 111 104 100 94 91 89 86 84 82 80 81 81 76 70 67 63 56 54 52 51 55 56 52 50 50 50 54 58 58 58 55 52 58 66 52 39 41 33 16 16 34 33 32 32 33 32 30 28 22 16 13 10 5 0 0 1 355 352 351 353 353 339 318 304 287 276 279 284 290 294 288 284 286 288 285 281 280 280 278 278
133 130 128 125 123 123 120 117 112 107 102 95 90 87 85 85 81 77 76 74 68 64 65 65 60 58 53 50 53 55 51 49 52 53 56 58 53 50 50 50 49 48 41 34 36 26 18 39 44 39 37 34 31 28 25 22 16 14 10 8 6 358 354 359 356 351 350 350 346 333 322 312 295 281 278 284 294 299 293 289 294 298 294 287 283 281 280 280
131 129 127 126 124 123 120 116 113 109 106 101 96 90 83 78 75 73 71 70 67 62 60 60 61 60 57 55 52 52 53 50 54 59 60 56 51 49 50 42 18 31 43 38 33 27 35 45 43 36 36 33 28 24 21 18 13 12 9 8 6 357 351 353 354 353 348 346 343 329 318 313 301 286 277 280 295 302 299 298 303 306 302 295 289 286 286 285
131 130 129 127 124 122 120 118 116 115 112 108 101 91 79 71 70 73 72 71 69 64 59 57 57 56 57 59 57 59 69 63 58 62 59 54 49 47 43 31 24 32 41 38 36 41 47 45 37 35 34 29 25 21 18 15 12 11 10 6 1 358 355 347 346 349 345 340 342 332 318 312 303 287 277 283 299 305 306 308 309 309 306 301 297 294 292 291
131 131 129 126 124 122 121 120 121 122 118 112 105 91 72 62 66 71 70 68 64 59 56 54 55 56 56 58 59 61 63 61 58 58 55 50 46 47 42 35 34 29 33 42 44 47 50 43 34 34 30 26 24 19 16 13 11 11 10 5 358 357 356 346 341 342 342 339 343 339 321 305 302 293 287 292 301 306 310 312 311 309 307 304 300 297 295 296
130 129 128 125 125 123 123 124 126 125 119 115 108 82 52 44 57 69 73 66 55 51 50 46 47 50 49 51 55 55 55 55 53 52 48 41 43 44 41 38 38 37 43 50 47 47 48 40 35 33 26 25 19 15 14 10 10 11 7 2 357 354 351 348 342 338 341 338 338 340 326 297 304 298 295 296 301 306 310 310 308 307 307 305 303 300 298 299
126 126 125 124 123 122 123 128 129 124 115 117 100 49 27 23 47 81 87 70 46 39 39 36 38 40 40 44 42 41 48 45 46 48 40 38 41 39 39 37 38 46 53 53 47 47 44 36 34 30 24 22 17 15 13 8 11 10 2 358 356 353 349 348 344 338 337 330 334 343 328 307 304 292 300 305 305 308 310 309 308 311 312 310 307 305 304 304
122 123 123 123 122 121 124 130 129 117 103 133 26 9 7 15 55 120 121 73 28 22 26 29 36 35 34 40 34 31 46 39 41 45 38 38 36 34 39 35 38 49 55 57 50 46 41 35 31 25 22 19 15 15 11 9 11 3 357 355 354 351 349 350 347 339 334 330 340 7 345 315 300 295 309 311 311 311 312 312 314 315 314 311 309 310 311 312
118 121 123 126 128 128 132 138 141 90 45 211 342 351 357 27 71 100 122 87 12 12 20 24 34 34 33 37 31 36 50 40 40 46 40 39 34 34 38 35 40 49 55 63 58 50 39 31 26 21 21 20 16 12 8 9 6 357 353 351 351 351 352 355 349 342 339 334 348 15 352 326 303 310 313 311 311 312 315 317 316 313 310 308 308 310 313 315
118 122 126 133 139 144 150 164 212 337 359 254 307 349 28 59 79 77 84 82 20 17 23 23 30 35 34 37 35 40 48 42 45 48 40 36 32 32 37 37 43 47 51 53 50 51 37 26 22 19 19 19 14 8 6 7 2 354 350 348 351 352 354 1 355 348 343 333 359 356 346 333 304 308 307 307 311 313 316 315 311 308 305 305 306 309 312 314
122 127 128 133 141 152 173 233 273 275 254 223 192 103 92 82 76 77 73 59 32 27 28 30 36 42 40 39 41 43 44 45 49 47 40 39 33 32 40 43 47 50 53 42 22 29 28 22 19 17 16 14 10 7 5 5 1 354 349 351 354 354 356 7 358 354 350 329 344 335 329 323 300 301 300 303 312 313 313 309 305 303 303 308 312 314 317 318
123 124 123 125 131 133 140 117 90 106 144 154 171 206 144 88 34 74 79 46 38 32 35 42 42 47 46 39 42 41 40 43 44 39 36 37 29 25 37 42 45 47 46 37 21 4 1 17 17 12 10 7 5 6 4 5 2 355 355 359 360 354 355 1 353 358 2 310 324 320 320 313 280 291 297 305 313 312 309 305 302 303 307 313 316 318 322 324
106 106 107 108 114 114 106 104 97 95 98 100 118 190 147 85 47 65 76 38 37 33 42 50 45 45 44 38 39 36 35 35 31 27 26 27 25 27 37 40 40 39 31 26 24 15 307 6 14 11 5 3 3 4 5 5 360 358 2 7 7 355 351 352 348 351 319 302 313 318 321 309 284 295 302 313 319 315 310 306 307 312 317 320 323 325 326 324
92 92 97 102 109 114 106 100 94 94 89 85 92 92 103 89 57 57 62 56 69 55 52 56 48 44 41 37 36 32 31 31 29 28 25 25 28 34 40 38 37 38 28 18 20 21 6 356 10 10 5 359 360 3 4 360 359 3 8 12 15 1 341 336 339 334 310 308 312 316 316 308 307 311 312 318 320 315 312 313 318 324 327 328 327 325 322 322
92 89 89 90 100 115 112 100 92 95 96 91 95 94 92 90 77 66 62 65 85 70 60 59 51 44 39 37 35 30 28 30 29 28 23 22 28 34 39 36 35 35 29 23 17 14 11 346 5 10 6 356 357 2 1 357 357 1 5 12 15 3 324 308 326 320 303 303 308 311 309 309 312 311 312 315 313 311 313 315 319 322 324 322 318 317 320 325
91 88 83 79 87 105 111 107 100 98 96 90 93 104 97 90 86 82 68 68 92 87 65 58 50 43 37 36 33 27 28 28 25 23 21 21 28 32 34 33 32 30 29 28 19 11 5 348 4 7 3 354 355 359 356 357 357 356 2 9 2 348 297 287 296 290 291 294 300 302 299 302 303 305 309 309 306 310 312 312 312 312 311 312 315 320 326 328
88 85 85 84 88 99 106 105 101 96 93 87 81 90 92 92 93 90 77 72 78 77 65 54 47 42 36 32 30 25 24 25 22 21 21 23 28 29 26 27 26 25 27 27 22 14 3 353 12 6 360 354 355 356 355 357 357 357 3 2 350 343 296 299 298 288 293 287 290 301 301 305 309 306 305 304 309 311 309 308 310 311 313 316 321 326 328 328
87 82 86 88 91 99 102 98 92 78 68 72 88 89 92 95 93 89 84 76 71 66 63 55 45 42 37 30 27 22 19 23 21 19 20 23 26 22 20 23 21 19 22 21 18 12 357 348 9 4 359 356 354 355 353 349 351 359 3 352 349 352 340 334 313 295 303 287 293 305 303 307 312 305 300 309 311 310 309 311 314 317 320 323 326 328 328 328
89 83 82 85 89 95 94 90 83 71 58 68 95 95 95 96 91 88 83 74 68 62 56 53 48 42 36 29 24 19 18 22 20 18 21 22 19 16 17 19 16 14 16 16 13 8 358 346 357 0 359 356 355 356 349 339 342 354 354 351 359 12 293 326 319 293 309 295 293 304 302 303 304 296 304 310 310 311 313 316 319 323 325 326 327 327 328 328
86 85 83 83 84 83 84 80 76 78 67 71 93 97 96 94 89 83 78 69 62 55 51 49 47 41 32 25 21 16 15 18 17 18 22 21 15 11 13 14 12 11 12 14 12 6 0 344 339 354 357 356 354 354 348 335 335 343 348 353 3 9 324 323 314 284 300 298 294 306 304 301 300 301 306 311 314 315 315 318 324 326 326 326 327 328 329 330
83 85 84 81 81 80 77 70 68 77 84 81 91 96 95 90 83 76 71 62 55 54 53 48 41 37 27 21 20 14 10 12 12 14 17 17 12 8 9 8 8 10 10 13 12 5 2 347 328 345 357 1 353 352 348 335 332 339 345 351 354 357 349 330 306 274 290 298 306 315 303 296 302 308 310 315 321 319 318 322 326 327 326 327 328 330 332 333
80 83 81 77 81 80 72 68 67 72 82 83 87 90 89 84 78 72 65 58 57 53 50 43 36 33 25 20 18 11 6 5 6 8 8 8 10 8 4 358 3 10 10 12 12 6 3 350 334 342 354 356 348 349 348 339 335 337 341 346 349 352 352 336 304 290 294 291 294 297 290 294 303 315 319 321 324 322 320 323 326 326 326 328 330 333 334 335
74 77 77 71 71 72 69 69 70 69 76 82 83 84 83 77 72 69 63 60 58 48 42 38 31 29 23 19 16 10 4 357 360 3 1 1 3 359 352 348 356 6 9 11 10 4 1 349 340 342 349 353 351 352 350 342 337 336 339 345 347 347 347 338 311 306 304 297 296 294 287 293 304 318 322 323 324 320 320 323 325 325 327 330 334 335 335 337
69 74 74 66 60 64 67 71 72 72 75 79 79 77 76 71 67 67 62 56 50 41 37 31 27 25 19 15 11 8 5 355 352 356 355 356 355 347 337 335 347 359 6 8 5 3 3 352 345 346 349 355 353 349 347 342 339 337 336 339 338 338 338 331 314 305 302 297 306 310 290 296 311 318 319 324 324 319 322 325 325 327 330 334 337 336 336 338
64 72 73 65 58 61 67 69 69 71 74 76 76 72 71 70 67 65 59 50 43 37 31 24 21 18 14 12 7 6 7 359 348 349 351 350 347 342 330 327 339 354 0 4 1 1 4 359 354 352 352 354 348 344 342 336 333 330 327 328 326 326 331 327 319 314 305 297 312 315 282 298 314 320 320 324 324 319 322 325 326 330 333 334 337 337 337 338
56 69 73 67 60 56 65 68 64 64 69 72 71 68 68 69 66 61 55 47 37 29 22 18 16 12 9 9 4 3 2 357 350 346 345 343 339 337 329 322 328 345 356 1 359 358 0 2 3 359 348 335 324 322 323 317 316 318 318 318 317 321 326 321 317 314 306 306 309 296 284 301 315 323 324 326 324 320 323 326 329 334 336 335 338 338 337 338
58 69 73 71 63 52 58 66 62 58 62 63 63 66 66 62 57 51 44 39 30 21 15 14 12 6 5 4 1 360 356 352 350 343 338 336 332 332 325 316 317 332 352 358 357 359 360 355 357 353 336 316 308 310 317 310 305 310 312 313 317 321 319 315 315 310 310 310 302 295 297 303 313 323 326 324 322 322 326 330 333 337 338 338 339 338 337 339
66 70 70 70 66 57 57 64 63 60 58 55 55 61 60 52 46 37 31 28 22 16 11 9 6 2 2 0 357 355 351 348 345 339 335 329 325 326 319 313 309 314 341 354 354 356 357 348 346 346 342 333 323 325 327 312 304 308 308 312 325 322 314 317 319 317 319 309 299 311 317 309 313 323 325 322 322 325 329 331 335 338 338 337 338 338 339 340
71 73 69 66 68 65 62 63 64 60 53 46 47 52 50 42 36 29 24 18 14 12 7 4 2 358 357 355 352 350 347 344 341 336 333 325 320 322 318 312 305 307 331 348 349 350 352 347 342 343 345 345 336 338 338 324 314 311 304 318 332 320 314 325 326 326 327 310 303 315 318 312 316 323 322 321 324 327 328 328 333 339 339 337 338 340 341 339
71 73 70 65 65 67 64 61 61 57 48 40 40 45 41 33 27 23 18 13 9 6 3 360 357 354 353 350 348 347 345 343 341 335 331 325 319 320 320 312 304 310 328 342 344 346 349 346 342 342 346 349 346 346 344 332 318 308 297 330 336 325 319 327 328 328 327 321 318 320 318 317 321 322 320 322 324 326 326 327 333 340 341 339 339 340 340 338
70 70 67 62 61 63 60 56 55 52 44 37 35 37 34 27 21 16 12 10 5 1 360 356 353 351 349 347 345 346 345 342 338 335 330 324 322 322 319 310 306 313 327 338 341 343 346 345 343 343 346 350 351 349 346 334 320 297 305 333 337 332 329 329 327 328 327 327 328 327 321 319 322 321 319 322 324 325 327 330 336 341 342 342 340 337 337 337
69 69 65 59 59 61 57 53 52 46 39 34 31 31 27 20 15 11 7 5 1 359 357 353 352 349 345 345 344 343 343 339 335 334 329 323 323 324 319 313 310 314 325 335 337 340 343 345 346 346 346 348 349 349 349 343 327 283 320 336 338 331 327 326 327 329 329 328 329 326 319 316 320 323 324 326 328 330 331 334 337 340 342 341 337 333 335 337
68 67 66 61 59 61 58 54 52 45 36 32 27 24 21 15 11 8 4 1 359 356 354 352 351 348 343 342 342 341 341 338 334 332 329 322 319 323 327 322 315 316 323 330 335 340 344 346 347 348 345 344 348 351 352 350 339 321 334 335 330 322 321 323 326 329 331 329 325 320 318 320 324 327 328 329 331 332 333 334 338 341 341 337 331 331 334 337
Height
3145 3146 3147 3147 3148 3149 3149 3150 3150 3150 3150 3149 3149 3148 3148 3148 3147 3147 3147 3146 3146 3145 3144 3143 3143 3142 3141 3141 3141 3140 3140 3140 3140 3140 3139 3139 3138 3138 3137 3137 3136 3136 3135 3134 3134 3133 3133 3133 3132 3132 3131 3131 3131 3131 3130 3130 3130 3130 3130 3130 3130 3129 3128 3127 3125 3124 3123 3122 3121 3120 3119 3118 3117 3116 3115 3114 3112 3110 3110 3109 3108 3107 3105 3103 3101 3099 3098 3096
3145 3146 3147 3147 3148 3149 3149 3150 3150 3150 3149 3149 3149 3148 3148 3148 3147 3147 3147 3146 3145 3145 3144 3143 3142 3142 3141 3141 3141 3140 3140 3140 3140 3140 3139 3139 3138 3138 3137 3136 3136 3135 3134 3134 3133 3133 3133 3132 3132 3132 3131 3131 3130 3130 3130 3130 3130 3129 3129 3129 3129 3128 3126 3125 3125 3124 3123 3121 3120 3119 3118 3117 3115 3114 3112 3112 3111 3109 3108 3107 3106 3106 3104 3102 3098 3096 3095 3093
3145 3146 3146 3147 3148 3149 3149 3150 3150 3150 3149 3149 3149 3148 3148 3148 3147 3147 3147 3146 3145 3144 3144 3143 3142 3142 3141 3141 3141 3141 3140 3140 3140 3140 3139 3138 3138 3137 3136 3136 3135 3135 3134 3134 3133 3133 3132 3132 3131 3131 3130 3130 3130 3130 3129 3129 3129 3129 3128 3128 3127 3126 3126 3125 3124 3123 3122 3120 3119 3118 3117 3116 3114 3112 3111 3110 3109 3108 3106 3104 3103 3102 3102 3100 3096 3094 3093 3091
3146 3146 3146 3147 3148 3149 3149 3150 3150 3149 3149 3149 3149 3148 3148 3148 3147 3147 3146 3146 3145 3144 3144 3143 3143 3142 3142 3141 3141 3141 3140 3140 3140 3139 3139 3138 3137 3137 3136 3136 3135 3135 3134 3134 3133 3132 3132 3131 3131 3130 3130 3130 3129 3129 3129 3129 3128 3128 3128 3127 3126 3126 3125 3124 3123 3122 3120 3119 3118 3117 3116 3115 3113 3111 3109 3109 3108 3106 3105 3103 3100 3100 3099 3098 3096 3094 3092 3091
3145 3146 3147 3148 3148 3149 3149 3149 3149 3149 3149 3149 3149 3149 3148 3148 3147 3147 3146 3145 3145 3144 3144 3143 3143 3142 3142 3141 3141 3141 3140 3140 3140 3139 3139 3138 3137 3137 3136 3136 3135 3135 3134 3133 3133 3132 3131 3131 3130 3130 3130 3130 3129 3129 3129 3128 3128 3127 3127 3126 3126 3125 3124 3123 3122 3121 3119 3118 3117 3116 3115 3114 3112 3110 3109 3108 3106 3104 3103 3102 3100 3099 3098 3097 3095 3093 3092 3090
3145 3146 3148 3148 3148 3149 3149 3149 3149 3149 3149 3149 3149 3149 3148 3148 3147 3147 3146 3145 3145 3144 3144 3143 3143 3142 3142 3142 3141 3141 3140 3140 3140 3139 3139 3138 3137 3137 3136 3136 3135 3135 3134 3133 3133 3132 3132 3131 3131 3130 3130 3130 3129 3129 3129 3128 3127 3127 3126 3126 3125 3124 3123 3122 3121 3120 3118 3117 3116 3115 3114 3113 3111 3110 3108 3107 3105 3104 3103 3102 3100 3099 3097 3095 3094 3092 3091 3089
3145 3146 3147 3148 3148 3149 3149 3149 3149 3149 3149 3149 3149 3149 3148 3148 3147 3147 3146 3146 3145 3145 3144 3143 3143 3142 3142 3142 3141 3141 3141 3141 3140 3139 3139 3138 3138 3137 3136 3136 3135 3135 3134 3134 3133 3133 3132 3132 3131 3130 3130 3130 3129 3129 3128 3127 3127 3126 3126 3125 3124 3123 3122 3121 3120 3119 3118 3117 3115 3114 3114 3113 3111 3110 3108 3107 3105 3105 3103 3102 3100 3098 3096 3094 3092 3090 3089 3087
3145 3146 3147 3147 3148 3148 3149 3149 3149 3149 3149 3149 3149 3149 3148 3147 3147 3147 3146 3146 3145 3145 3144 3144 3143 3143 3142 3142 3142 3142 3141 3141 3140 3140 3139 3139 3138 3137 3137 3136 3136 3135 3135 3134 3134 3133 3133 3132 3131 3130 3130 3130 3129 3128 3127 3127 3126 3126 3125 3124 3123 3123 3122 3121 3120 3119 3118 3117 3115 3114 3114 3112 3111 3110 3108 3107 3106 3105 3103 3101 3099 3097 3095 3093 3091 3089 3087 3085
3145 3146 3146 3147 3148 3148 3149 3149 3149 3149 3149 3149 3149 3148 3148 3148 3147 3147 3146 3146 3145 3145 3144 3144 3143 3143 3143 3143 3142 3142 3142 3141 3141 3140 3140 3139 3138 3138 3137 3137 3136 3136 3135 3135 3134 3133 3133 3132 3131 3130 3130 3129 3128 3128 3127 3127 3126 3126 3125 3124 3123 3122 3122 3121 3120 3119 3118 3117 3115 3114 3114 3113 3111 3110 3108 3107 3106 3105 3102 3100 3098 3096 3094 3092 3090 3088 3086 3085
3145 3146 3146 3147 3148 3148 3149 3149 3149 3149 3149 3149 3149 3148 3148 3148 3147 3146 3146 3146 3145 3145 3145 3145 3144 3144 3143 3143 3143 3143 3142 3142 3141 3141 3140 3140 3139 3139 3138 3137 3136 3136 3135 3135 3134 3133 3132 3131 3131 3130 3129 3129 3128 3128 3127 3127 3126 3126 3125 3124 3123 3123 3122 3122 3121 3120 3119 3117 3115 3114 3113 3112 3111 3110 3108 3107 3106 3104 3101 3099 3097 3096 3094 3092 3090 3088 3086 3084
3145 3145 3146 3147 3148 3148 3149 3149 3149 3149 3149 3149 3149 3148 3148 3147 3147 3146 3146 3146 3146 3146 3146 3145 3144 3144 3144 3144 3144 3143 3143 3142 3142 3141 3141 3140 3140 3139 3138 3137 3136 3136 3135 3134 3134 3133 3132 3131 3130 3129 3129 3129 3128 3128 3128 3127 3127 3126 3125 3124 3124 3123 3123 3122 3121 3120 3118 3117 3115 3113 3112 3112 3111 3109 3107 3106 3105 3102 3100 3098 3097 3095 3093 3091 3089 3087 3085 3083
3145 3146 3146 3147 3148 3149 3149 3149 3149 3149 3149 3149 3149 3148 3148 3148 3147 3147 3147 3147 3147 3146 3146 3146 3145 3145 3145 3145 3145 3144 3143 3143 3142 3142 3141 3141 3140 3139 3138 3137 3136 3136 3135 3134 3134 3133 3132 3132 3130 3129 3129 3129 3129 3128 3128 3128 3127 3127 3126 3126 3125 3124 3123 3122 3121 3119 3117 3116 3115 3113 3112 3111 3109 3108 3106 3105 3103 3100 3099 3097 3096 3094 3092 3089 3087 3085 3083 3081
3145 3146 3147 3148 3148 3149 3149 3149 3150 3150 3150 3149 3149 3149 3148 3148 3148 3148 3148 3148 3147 3147 3147 3147 3146 3146 3146 3146 3145 3144 3144 3143 3143 3143 3142 3141 3140 3139 3138 3137 3137 3136 3135 3135 3134 3133 3133 3131 3130 3131 3131 3130 3129 3129 3129 3129 3127 3127 3127 3126 3124 3123 3122 3121 3120 3119 3117 3116 3115 3113 3112 3110 3108 3107 3105 3103 3100 3098 3098 3096 3094 3092 3090 3087 3085 3083 3081 3079
3145 3146 3147 3148 3149 3149 3150 3150 3150 3150 3150 3150 3149 3149 3149 3149 3149 3149 3149 3148 3148 3148 3148 3148 3147 3147 3146 3146 3145 3145 3145 3144 3144 3143 3142 3141 3140 3139 3138 3138 3137 3136 3135 3135 3134 3134 3133 3131 3132 3132 3131 3131 3130 3130 3130 3129 3128 3127 3126 3124 3123 3123 3122 3121 3120 3118 3117 3115 3114 3112 3112 3110 3106 3105 3104 3101 3099 3098 3097 3095 3093 3090 3088 3086 3084 3082 3080 3078
3146 3147 3148 3148 3149 3150 3150 3150 3150 3150 3150 3150 3150 3150 3150 3150 3150 3150 3150 3150 3149 3149 3149 3148 3148 3147 3147 3146 3145 3145 3145 3144 3144 3143 3142 3141 3140 3139 3139 3138 3137 3137 3136 3136 3135 3135 3134 3133 3134 3133 3132 3132 3131 3130 3130 3129 3127 3126 3125 3124 3123 3123 3122 3120 3119 3117 3115 3114 3112 3110 3111 3108 3104 3103 3102 3100 3098 3097 3095 3093 3091 3089 3086 3085 3083 3081 3079 3076
3146 3147 3148 3149 3149 3150 3150 3150 3151 3151 3151 3151 3151 3151 3151 3151 3151 3151 3151 3150 3150 3150 3149 3149 3148 3148 3148 3147 3146 3146 3145 3145 3144 3144 3143 3142 3141 3140 3140 3139 3138 3138 3137 3137 3136 3136 3135 3135 3135 3134 3133 3133 3131 3130 3129 3128 3126 3126 3125 3125 3123 3122 3121 3120 3118 3116 3114 3113 3112 3109 3108 3105 3102 3101 3100 3098 3097 3095 3094 3092 3089 3087 3085 3083 3081 3079 3077 3075
3147 3148 3148 3149 3150 3150 3151 3151 3151 3151 3152 3152 3152 3152 3152 3152 3152 3152 3152 3151 3151 3150 3150 3150 3149 3149 3148 3148 3148 3147 3146 3145 3145 3144 3143 3142 3142 3141 3140 3140 3139 3138 3138 3138 3137 3137 3137 3137 3136 3135 3135 3133 3132 3130 3129 3127 3127 3126 3126 3125 3124 3122 3120 3118 3117 3116 3114 3112 3111 3108 3105 3103 3101 3099 3098 3097 3096 3094 3092 3090 3088 3086 3084 3081 3079 3077 3075 3073
3147 3148 3149 3150 3150 3151 3151 3152 3152 3152 3153 3153 3153 3153 3153 3153 3153 3153 3152 3152 3152 3151 3151 3150 3150 3149 3149 3149 3148 3147 3146 3146 3145 3145 3144 3143 3143 3142 3141 3140 3140 3139 3139 3139 3139 3138 3138 3137 3137 3135 3134 3132 3130 3129 3128 3129 3129 3127 3126 3125 3124 3122 3120 3118 3116 3114 3113 3112 3111 3108 3104 3102 3100 3098 3097 3096 3094 3093 3091 3089 3086 3084 3082 3080 3077 3075 3073 3070
3148 3149 3150 3150 3151 3152 3152 3153 3153 3153 3154 3154 3154 3154 3154 3154 3154 3154 3153 3153 3153 3152 3151 3151 3151 3150 3149 3149 3148 3148 3147 3147 3146 3146 3145 3144 3144 3143 3142 3142 3141 3141 3141 3140 3140 3139 3138 3137 3136 3134 3132 3131 3130 3129 3130 3130 3130 3128 3127 3125 3123 3122 3119 3117 3115 3113 3112 3111 3110 3108 3104 3101 3100 3097 3096 3095 3093 3091 3089 3087 3085 3083 3080 3078 3075 3073 3071 3068
3149 3149 3150 3151 3152 3152 3153 3154 3154 3155 3155 3155 3156 3155 3155 3155 3155 3155 3155 3154 3153 3152 3152 3152 3152 3151 3150 3150 3149 3149 3148 3148 3147 3147 3146 3146 3145 3144 3143 3143 3143 3142 3142 3141 3140 3140 3139 3136 3135 3135 3134 3133 3132 3132 3131 3130 3129 3128 3127 3125 3123 3121 3119 3117 3114 3112 3110 3109 3108 3106 3103 3100 3098 3096 3095 3093 3091 3090 3088 3085 3083 3081 3079 3076 3074 3071 3068 3065
3149 3150 3151 3152 3153 3153 3154 3155 3155 3156 3156 3156 3157 3157 3157 3157 3156 3156 3156 3155 3154 3153 3153 3153 3153 3152 3152 3151 3151 3150 3150 3149 3149 3148 3148 3147 3146 3145 3145 3144 3144 3143 3142 3141 3141 3140 3138 3136 3136 3137 3136 3135 3134 3133 3132 3131 3130 3128 3126 3125 3122 3119 3117 3115 3113 3110 3108 3107 3106 3104 3101 3098 3096 3094 3093 3091 3089 3088 3086 3084 3083 3080 3077 3074 3071 3068 3066 3063
3151 3152 3152 3153 3154 3155 3155 3156 3156 3157 3157 3157 3158 3158 3158 3158 3157 3157 3157 3155 3154 3154 3154 3154 3154 3154 3154 3153 3152 3151 3151 3151 3150 3150 3149 3148 3148 3147 3146 3146 3145 3144 3143 3142 3141 3140 3138 3137 3138 3138 3136 3136 3135 3133 3132 3131 3129 3128 3126 3124 3121 3118 3114 3112 3111 3109 3107 3106 3104 3102 3100 3096 3094 3092 3091 3089 3087 3086 3085 3083 3081 3078 3075 3072 3069 3066 3063 3061
3152 3153 3153 3154 3155 3156 3156 3157 3157 3158 3158 3158 3159 3159 3159 3159 3159 3158 3157 3156 3156 3156 3156 3156 3156 3156 3155 3154 3153 3153 3153 3153 3152 3151 3150 3149 3149 3148 3147 3147 3145 3144 3144 3143 3142 3140 3139 3139 3140 3138 3137 3136 3135 3133 3132 3131 3129 3128 3126 3123 3120 3118 3113 3109 3107 3107 3106 3105 3103 3100 3097 3094 3091 3090 3089 3088 3086 3084 3082 3080 3078 3075 3072 3070 3067 3064 3061 3058
3153 3154 3155 3156 3156 3157 3158 3158 3159 3159 3159 3159 3159 3160 3160 3160 3160 3159 3158 3157 3157 3157 3158 3158 3157 3157 3156 3156 3155 3154 3154 3154 3153 3151 3151 3151 3150 3149 3148 3147 3146 3145 3144 3143 3142 3140 3140 3141 3140 3138 3138 3136 3135 3134 3132 3131 3129 3127 3125 3122 3119 3116 3114 3111 3107 3105 3104 3102 3101 3098 3094 3090 3089 3089 3088 3087 3085 3082 3080 3077 3074 3072 3070 3067 3065 3062 3058 3055
3154 3155 3156 3157 3158 3158 3159 3160 3160 3160 3160 3160 3160 3160 3160 3160 3160 3160 3159 3158 3159 3159 3159 3159 3159 3158 3157 3157 3156 3155 3155 3155 3154 3153 3152 3152 3151 3150 3149 3148 3146 3145 3144 3143 3143 3141 3141 3141 3140 3139 3138 3136 3135 3134 3132 3130 3128 3126 3124 3122 3119 3116 3114 3111 3107 3104 3101 3100 3099 3097 3094 3089 3087 3087 3086 3085 3083 3081 3078 3075 3072 3070 3068 3065 3062 3059 3056 3052
3156 3157 3158 3158 3159 3160 3160 3161 3161 3161 3161 3161 3161 3160 3160 3160 3160 3160 3160 3159 3160 3161 3160 3160 3159 3159 3158 3157 3157 3156 3156 3155 3155 3154 3153 3153 3151 3150 3149 3148 3147 3145 3144 3144 3143 3142 3142 3141 3140 3139 3138 3136 3135 3133 3131 3129 3126 3125 3123 3121 3118 3116 3113 3110 3107 3104 3102 3100 3097 3097 3096 3090 3085 3085 3084 3083 3081 3079 3077 3074 3071 3069 3066 3063 3059 3055 3052 3049
3158 3158 3159 3160 3160 3161 3161 3162 3162 3162 3162 3161 3161 3160 3160 3160 3160 3160 3160 3159 3162 3162 3162 3162 3161 3161 3160 3159 3158 3157 3157 3157 3156 3155 3154 3153 3152 3151 3150 3148 3147 3146 3145 3144 3144 3143 3143 3142 3141 3139 3138 3136 3134 3132 3130 3127 3125 3124 3122 3120 3117 3114 3112 3108 3106 3104 3101 3098 3095 3095 3095 3091 3085 3083 3083 3081 3079 3077 3074 3072 3069 3067 3063 3059 3055 3051 3047 3044
3159 3160 3160 3161 3161 3161 3162 3162 3162 3162 3161 3161 3161 3161 3161 3161 3160 3160 3159 3162 3166 3165 3164 3163 3163 3162 3161 3160 3160 3159 3158 3158 3157 3156 3155 3154 3153 3151 3150 3148 3147 3146 3145 3145 3144 3144 3143 3141 3140 3139 3137 3135 3132 3131 3129 3127 3125 3124 3121 3119 3116 3113 3110 3107 3104 3102 3099 3095 3094 3093 3094 3091 3085 3083 3082 3080 3078 3075 3072 3070 3067 3063 3060 3055 3051 3048 3044 3041
3160 3160 3161 3161 3161 3161 3162 3162 3162 3161 3161 3161 3161 3161 3161 3161 3161 3160 3159 3164 3169 3167 3166 3165 3164 3164 3163 3162 3161 3160 3159 3159 3157 3156 3156 3154 3153 3152 3150 3149 3148 3146 3146 3145 3144 3144 3142 3141 3140 3138 3136 3134 3132 3131 3129 3127 3125 3123 3120 3117 3114 3111 3107 3104 3103 3100 3096 3093 3093 3093 3093 3092 3085 3081 3080 3078 3076 3074 3071 3069 3065 3060 3057 3052 3049 3045 3042 3038
3160 3161 3161 3161 3161 3161 3161 3161 3161 3161 3161 3161 3161 3161 3161 3161 3161 3160 3162 3167 3170 3168 3168 3167 3166 3165 3164 3163 3162 3161 3160 3159 3157 3157 3156 3155 3154 3153 3151 3150 3148 3147 3146 3145 3144 3143 3142 3141 3139 3137 3136 3134 3133 3131 3128 3127 3124 3122 3119 3114 3110 3107 3103 3102 3100 3097 3094 3092 3093 3092 3093 3093 3085 3078 3077 3076 3074 3072 3069 3065 3061 3057 3053 3049 3045 3042 3038 3033
3161 3161 3161 3161 3161 3161 3161 3161 3161 3161 3161 3161 3161 3161 3162 3162 3161 3161 3166 3170 3170 3169 3169 3168 3167 3166 3165 3164 3163 3161 3160 3159 3158 3158 3157 3156 3155 3153 3151 3150 3149 3147 3146 3145 3144 3142 3141 3140 3139 3137 3135 3134 3132 3130 3128 3126 3124 3121 3118 3113 3108 3104 3101 3099 3097 3096 3096 3094 3093 3091 3090 3091 3084 3075 3073 3073 3071 3069 3065 3061 3057 3053 3050 3046 3041 3037 3033 3028
3161 3161 3161 3161 3161 3162 3162 3162 3162 3161 3162 3162 3162 3162 3162 3162 3162 3165 3169 3170 3170 3170 3170 3168 3168 3167 3165 3164 3163 3162 3161 3159 3158 3158 3156 3156 3154 3152 3151 3150 3148 3147 3146 3145 3143 3142 3141 3140 3138 3136 3134 3132 3130 3128 3127 3125 3123 3121 3118 3113 3110 3106 3103 3101 3098 3098 3097 3094 3092 3091 3088 3086 3081 3075 3072 3070 3067 3064 3060 3057 3053 3049 3045 3041 3037 3033 3029 3025
3161 3162 3162 3162 3162 3162 3162 3162 3162 3162 3163 3163 3163 3163 3163 3163 3166 3169 3170 3170 3170 3171 3170 3169 3168 3167 3166 3165 3163 3162 3161 3159 3158 3157 3156 3155 3153 3151 3150 3150 3148 3147 3146 3145 3143 3141 3140 3139 3137 3135 3133 3131 3129 3127 3126 3124 3123 3120 3118 3116 3115 3113 3112 3109 3104 3101 3097 3091 3089 3090 3087 3082 3077 3073 3070 3067 3064 3060 3056 3053 3049 3044 3040 3036 3033 3030 3026 3022
3162 3163 3163 3163 3163 3163 3163 3163 3163 3163 3164 3164 3164 3164 3163 3165 3169 3171 3170 3170 3171 3170 3170 3169 3168 3167 3166 3165 3163 3162 3161 3160 3159 3157 3156 3155 3153 3152 3151 3150 3149 3148 3146 3144 3142 3141 3140 3138 3137 3135 3133 3131 3129 3128 3127 3125 3123 3121 3120 3119 3119 3119 3119 3115 3110 3107 3101 3092 3087 3087 3085 3080 3075 3070 3068 3065 3062 3059 3055 3051 3047 3044 3039 3035 3030 3027 3021 3015
3164 3164 3164 3164 3164 3164 3164 3164 3164 3165 3165 3165 3165 3164 3165 3168 3171 3171 3171 3171 3170 3170 3170 3169 3169 3168 3166 3165 3164 3162 3161 3159 3158 3157 3156 3155 3153 3152 3151 3150 3149 3148 3146 3145 3143 3142 3140 3139 3137 3136 3134 3132 3130 3129 3127 3125 3123 3121 3119 3119 3119 3120 3119 3116 3111 3108 3104 3096 3088 3083 3080 3078 3075 3069 3065 3063 3060 3058 3055 3050 3046 3042 3038 3032 3026 3020 3014 3008
3165 3165 3165 3165 3165 3165 3165 3166 3166 3166 3166 3166 3166 3165 3167 3170 3171 3171 3171 3171 3171 3171 3170 3170 3169 3168 3166 3165 3163 3162 3161 3159 3158 3157 3156 3154 3153 3152 3151 3150 3148 3147 3146 3145 3144 3142 3140 3139 3138 3137 3135 3132 3130 3129 3126 3124 3123 3121 3119 3119 3118 3117 3116 3114 3110 3105 3103 3096 3087 3080 3076 3073 3071 3066 3062 3060 3058 3055 3052 3047 3043 3039 3033 3027 3020 3014 3009 3003
3166 3166 3166 3166 3167 3167 3167 3167 3167 3167 3167 3166 3166 3167 3169 3171 3171 3171 3172 3172 3171 3171 3170 3170 3169 3167 3166 3165 3163 3162 3160 3159 3158 3157 3156 3154 3153 3152 3151 3150 3148 3147 3146 3145 3144 3143 3141 3139 3138 3137 3135 3132 3130 3128 3125 3123 3122 3121 3120 3119 3116 3114 3113 3113 3109 3103 3100 3094 3083 3079 3075 3069 3067 3064 3058 3057 3054 3051 3048 3043 3039 3033 3027 3020 3015 3010 3005 2998
3167 3167 3168 3168 3168 3168 3168 3168 3168 3168 3167 3167 3167 3168 3170 3171 3172 3172 3172 3172 3172 3171 3170 3169 3168 3167 3166 3164 3163 3162 3160 3159 3158 3157 3156 3154 3153 3152 3151 3150 3149 3147 3146 3145 3144 3143 3142 3139 3138 3136 3134 3131 3129 3128 3125 3123 3121 3120 3120 3118 3115 3114 3113 3111 3109 3104 3100 3094 3082 3077 3074 3068 3065 3062 3057 3054 3051 3047 3043 3039 3033 3027 3021 3016 3011 3006 3000 2993
3169 3169 3169 3169 3169 3169 3169 3169 3168 3168 3168 3168 3168 3169 3171 3172 3172 3173 3172 3172 3171 3170 3169 3168 3167 3166 3165 3164 3163 3162 3161 3160 3158 3157 3156 3155 3154 3153 3151 3150 3149 3148 3146 3145 3144 3143 3141 3139 3138 3136 3133 3130 3127 3126 3124 3122 3120 3118 3117 3114 3113 3114 3113 3110 3108 3105 3101 3095 3084 3076 3070 3065 3063 3060 3056 3053 3050 3044 3039 3034 3028 3021 3017 3013 3007 3001 2995 2988
3170 3170 3170 3170 3170 3170 3170 3169 3169 3169 3169 3169 3169 3170 3172 3172 3173 3173 3173 3172 3171 3170 3169 3168 3167 3166 3165 3164 3163 3162 3161 3160 3158 3157 3156 3155 3154 3153 3152 3151 3149 3148 3147 3146 3144 3142 3141 3139 3137 3133 3131 3129 3126 3124 3123 3121 3119 3116 3114 3112 3111 3111 3110 3106 3103 3102 3101 3096 3088 3081 3070 3059 3059 3059 3055 3052 3048 3042 3035 3029 3023 3018 3013 3009 3003 2996 2990 2983
3172 3172 3172 3172 3172 3171 3170 3170 3170 3170 3170 3170 3171 3171 3172 3173 3173 3173 3172 3171 3170 3170 3169 3168 3167 3167 3166 3165 3163 3162 3161 3160 3158 3157 3156 3155 3154 3153 3152 3151 3150 3148 3147 3145 3144 3142 3140 3139 3135 3131 3128 3127 3125 3123 3121 3119 3118 3115 3113 3112 3110 3109 3108 3106 3101 3098 3099 3097 3091 3087 3072 3055 3054 3057 3054 3052 3047 3039 3033 3026 3020 3014 3009 3004 2998 2991 2985 2979
3174 3173 3173 3173 3173 3172 3171 3171 3172 3172 3171 3172 3172 3173 3173 3174 3173 3173 3172 3171 3171 3170 3170 3169 3168 3167 3166 3165 3164 3162 3161 3160 3158 3157 3156 3155 3154 3153 3152 3150 3149 3148 3146 3144 3143 3141 3139 3137 3133 3130 3127 3125 3123 3121 3118 3117 3115 3112 3110 3108 3108 3107 3106 3107 3103 3097 3096 3094 3089 3087 3073 3054 3051 3055 3052 3050 3045 3036 3030 3025 3018 3011 3004 2998 2992 2986 2981 2975
3175 3175 3174 3174 3174 3173 3173 3173 3173 3173 3173 3173 3173 3174 3174 3174 3173 3172 3172 3172 3171 3170 3170 3169 3168 3167 3166 3165 3164 3162 3161 3159 3158 3157 3156 3155 3153 3152 3150 3149 3148 3146 3145 3143 3142 3140 3138 3135 3131 3127 3124 3122 3120 3118 3117 3115 3113 3109 3107 3105 3105 3105 3105 3105 3103 3097 3094 3090 3087 3084 3070 3051 3049 3052 3049 3047 3042 3032 3027 3022 3015 3007 2999 2993 2988 2982 2977 2971
3176 3176 3176 3175 3175 3174 3174 3174 3174 3174 3174 3174 3174 3174 3174 3173 3173 3173 3172 3172 3171 3171 3170 3169 3168 3167 3166 3165 3163 3162 3160 3159 3158 3156 3155 3154 3152 3151 3149 3148 3147 3145 3144 3142 3141 3139 3138 3136 3132 3127 3123 3121 3118 3117 3116 3114 3113 3110 3108 3106 3104 3105 3104 3102 3100 3097 3092 3088 3087 3085 3068 3047 3044 3047 3044 3043 3038 3028 3023 3019 3012 3005 2997 2990 2984 2978 2973 2967
3177 3177 3177 3176 3176 3176 3175 3174 3175 3175 3174 3174 3174 3174 3174 3173 3173 3173 3173 3172 3172 3171 3171 3170 3168 3167 3166 3165 3163 3161 3160 3158 3157 3155 3154 3152 3151 3149 3148 3147 3146 3145 3143 3142 3140 3139 3137 3136 3134 3132 3130 3127 3123 3121 3119 3116 3113 3111 3108 3107 3104 3103 3103 3101 3099 3096 3091 3085 3083 3083 3069 3048 3040 3040 3037 3036 3033 3025 3018 3014 3007 3001 2995 2988 2981 2974 2968 2963
3178 3178 3177 3177 3177 3177 3176 3175 3176 3175 3174 3175 3174 3174 3174 3174 3174 3174 3173 3173 3172 3172 3171 3170 3169 3167 3166 3165 3163 3161 3160 3158 3157 3155 3153 3152 3150 3149 3147 3146 3145 3144 3143 3141 3139 3138 3137 3135 3135 3133 3133 3130 3125 3123 3121 3117 3113 3110 3107 3105 3103 3101 3100 3099 3097 3095 3091 3083 3075 3074 3070 3052 3038 3034 3032 3029 3027 3021 3015 3009 3002 2996 2990 2983 2977 2971 2965 2959
3179 3179 3178 3178 3178 3178 3177 3176 3177 3176 3175 3175 3175 3175 3175 3175 3175 3174 3174 3173 3173 3172 3171 3170 3169 3168 3166 3165 3163 3161 3159 3158 3156 3154 3152 3151 3149 3148 3147 3145 3144 3143 3142 3140 3139 3137 3136 3134 3133 3132 3129 3127 3123 3120 3118 3115 3111 3108 3105 3103 3101 3099 3097 3096 3095 3092 3090 3083 3070 3064 3065 3055 3039 3033 3029 3024 3020 3016 3011 3004 2997 2991 2985 2979 2973 2967 2961 2955
3180 3180 3179 3179 3179 3179 3178 3178 3177 3177 3177 3177 3176 3176 3176 3176 3175 3175 3174 3173 3173 3172 3171 3170 3169 3167 3166 3164 3163 3161 3159 3157 3156 3154 3152 3150 3149 3147 3146 3145 3144 3142 3141 3139 3138 3136 3135 3133 3131 3128 3126 3123 3121 3117 3114 3111 3108 3104 3102 3102 3100 3097 3095 3093 3091 3088 3087 3084 3071 3061 3058 3052 3042 3034 3028 3022 3017 3012 3007 3002 2995 2988 2982 2976 2969 2962 2956 2950
3181 3180 3180 3180 3180 3179 3179 3179 3178 3178 3178 3178 3177 3177 3177 3176 3175 3175 3174 3174 3173 3172 3171 3169 3168 3167 3165 3164 3162 3160 3158 3157 3155 3153 3151 3150 3148 3147 3146 3144 3143 3142 3140 3139 3137 3135 3133 3131 3128 3125 3122 3120 3117 3114 3110 3107 3104 3101 3100 3100 3097 3095 3093 3091 3088 3085 3083 3079 3072 3063 3055 3048 3042 3036 3027 3021 3016 3011 3006 3000 2993 2986 2979 2971 2964 2957 2951 2945
3182 3181 3181 3181 3181 3180 3180 3179 3179 3179 3179 3179 3178 3178 3177 3177 3176 3175 3174 3174 3172 3171 3170 3169 3167 3166 3164 3163 3161 3159 3157 3156 3154 3153 3151 3150 3148 3147 3146 3144 3143 3142 3140 3138 3136 3134 3132 3130 3127 3123 3120 3117 3114 3111 3108 3104 3101 3099 3098 3097 3095 3092 3091 3089 3086 3083 3077 3070 3064 3060 3051 3043 3040 3034 3025 3018 3014 3007 3002 2996 2989 2983 2976 2968 2961 2954 2947 2940
3184 3183 3182 3183 3182 3181 3181 3181 3180 3180 3180 3179 3179 3178 3178 3177 3176 3175 3174 3173 3172 3171 3169 3168 3167 3165 3163 3162 3160 3159 3157 3155 3153 3152 3151 3150 3148 3147 3146 3144 3143 3141 3139 3137 3135 3133 3131 3128 3124 3120 3117 3115 3112 3108 3104 3100 3098 3097 3096 3094 3092 3090 3088 3086 3084 3081 3075 3066 3058 3053 3046 3039 3035 3029 3020 3012 3007 3002 2996 2990 2984 2979 2973 2967 2961 2954 2946 2938
3186 3184 3184 3184 3183 3182 3182 3182 3181 3181 3180 3180 3179 3178 3178 3177 3176 3175 3174 3173 3171 3170 3169 3168 3166 3165 3163 3161 3160 3158 3156 3154 3152 3151 3150 3149 3148 3146 3145 3143 3141 3140 3138 3136 3134 3132 3129 3126 3123 3119 3115 3111 3109 3105 3101 3098 3096 3095 3094 3092 3090 3089 3086 3082 3080 3077 3072 3066 3058 3051 3044 3037 3031 3024 3014 3004 2998 2994 2990 2986 2981 2974 2969 2964 2959 2952 2944 2936